ARIANE 40+ R/B

Last updated on Sat Oct 25 2025 00:02:16 GMT+0000 (Coordinated Universal Time)

1 23561U 95021B 25297.74807264 .00000481 00000+0 16772-3 0 9995 2 23561 98.4706 5.9159 0006797 179.9027 290.2869 14.39638205599680
UTC large
Height (km)
Speed (km/s)
/
Latitude / Longitude
Inclination (degrees)
Orbital Period (minutes)
Azimuth
Elevation
Range (km)
Doppler Factor

Next 0 passes for location: London (51.5072 / 0.1276)

Sorry there are no passes over London.